| time (UTC) | temp F | wind direction | speed knots | gust knots | rain 1hr in | rain 24hr in | rain mn in | humidity % | barometer mb |
| 20260903133705 | 54 | 174 | 0.0 | 0.0 | 0.00 | 0.08 | 0.00 | 90 | 1018.7 |
| 20260903133205 | 53 | 174 | 0.0 | 0.0 | 0.00 | 0.08 | 0.00 | 90 | 1018.5 |
| 20260903132204 | 53 | 174 | 0.0 | 0.9 | 0.00 | 0.08 | 0.00 | 90 | 1018.4 |
| 20260903131705 | 53 | 174 | 0.9 | 1.7 | 0.00 | 0.08 | 0.00 | 90 | 1018.5 |
| 20260903131205 | 53 | 174 | 0.0 | 0.9 | 0.00 | 0.08 | 0.00 | 90 | 1018.5 |
| 20260903130204 | 53 | 174 | 0.0 | 0.9 | 0.00 | 0.08 | 0.00 | 90 | 1018.4 |
| 20260903125704 | 53 | 174 | 0.0 | 0.9 | 0.00 | 0.08 | 0.00 | 90 | 1018.4 |
| 20260903125204 | 53 | 174 | 0.0 | 0.0 | 0.00 | 0.08 | 0.00 | 90 | 1018.3 |
| 20260903124705 | 53 | 174 | 0.0 | 0.0 | 0.00 | 0.08 | 0.00 | 90 | 1018.2 |
| 20260903124205 | 53 | 174 | 0.0 | 0.0 | 0.00 | 0.08 | 0.00 | 90 | 1018.1 |
| 20260903123704 | 53 | 174 | 0.0 | 0.0 | 0.00 | 0.08 | 0.00 | 90 | 1018.1 |
| 20260903123205 | 53 | 174 | 0.0 | 0.0 | 0.00 | 0.08 | 0.00 | 90 | 1018.1 |
| 20260903122704 | 53 | 174 | 0.0 | 0.9 | 0.00 | 0.08 | 0.00 | 90 | 1018.0 |
| 20260903122205 | 53 | 174 | 0.0 | 0.0 | 0.00 | 0.08 | 0.00 | 90 | 1018.0 |
| 20260903121204 | 53 | 174 | 0.0 | 0.0 | 0.00 | 0.08 | 0.00 | 90 | 1018.0 |
| 20260903120705 | 53 | 174 | 0.0 | 0.0 | 0.00 | 0.08 | 0.00 | 90 | 1018.0 |
| 20260903115704 | 53 | 174 | 0.0 | 0.9 | 0.00 | 0.08 | 0.00 | 90 | 1017.9 |
| 20260903115205 | 53 | 174 | 0.0 | 0.9 | 0.00 | 0.08 | 0.00 | 90 | 1017.8 |
| 20260903114704 | 53 | 174 | 0.0 | 0.0 | 0.00 | 0.08 | 0.00 | 90 | 1017.8 |
| 20260903114205 | 53 | 174 | 0.0 | 0.0 | 0.00 | 0.08 | 0.00 | 90 | 1017.8 |
| 20260903113704 | 53 | 174 | 0.0 | 0.0 | 0.00 | 0.08 | 0.00 | 90 | 1017.8 |
| 20260903113204 | 53 | 174 | 0.0 | 0.9 | 0.00 | 0.08 | 0.00 | 90 | 1017.7 |
| 20260903112705 | 53 | 174 | 0.0 | 0.9 | 0.00 | 0.08 | 0.00 | 90 | 1017.6 |
| 20260903111704 | 54 | 174 | 0.0 | 0.0 | 0.00 | 0.08 | 0.00 | 90 | 1017.7 |
| 20260903111204 | 54 | 174 | 0.0 | 0.9 | 0.00 | 0.08 | 0.00 | 89 | 1017.7 |
| 20260903110704 | 54 | 174 | 0.0 | 0.0 | 0.00 | 0.08 | 0.00 | 89 | 1017.8 |
| 20260903110204 | 54 | 174 | 0.0 | 0.0 | 0.00 | 0.08 | 0.00 | 89 | 1017.7 |
| 20260903105704 | 54 | 174 | 0.0 | 0.0 | 0.00 | 0.08 | 0.00 | 89 | 1017.8 |
| 20260903104705 | 55 | 174 | 0.0 | 0.0 | 0.00 | 0.08 | 0.00 | 89 | 1017.7 |
| 20260903104205 | 55 | 174 | 0.0 | 0.0 | 0.00 | 0.08 | 0.00 | 89 | 1017.7 |
| 20260903103704 | 55 | 174 | 0.0 | 0.0 | 0.00 | 0.08 | 0.00 | 90 | 1017.7 |
| 20260903103205 | 55 | 174 | 0.0 | 0.0 | 0.00 | 0.08 | 0.00 | 90 | 1017.8 |
| 20260903102704 | 55 | 174 | 0.0 | 0.0 | 0.00 | 0.08 | 0.00 | 89 | 1017.8 |
| 20260903102205 | 55 | 174 | 0.0 | 0.0 | 0.00 | 0.08 | 0.00 | 89 | 1017.7 |
| 20260903101204 | 55 | 174 | 0.0 | 0.0 | 0.00 | 0.08 | 0.00 | 89 | 1017.7 |
| 20260903100704 | 55 | 174 | 0.0 | 0.0 | 0.00 | 0.08 | 0.00 | 89 | 1017.7 |
| 20260903100204 | 56 | 174 | 0.0 | 0.9 | 0.00 | 0.08 | 0.00 | 89 | 1017.7 |
| 20260903095704 | 56 | 174 | 0.0 | 0.0 | 0.00 | 0.08 | 0.00 | 89 | 1017.7 |
| 20260903095205 | 56 | 174 | 0.0 | 0.0 | 0.00 | 0.08 | 0.00 | 89 | 1017.7 |
| 20260903094704 | 56 | 174 | 0.0 | 0.0 | 0.00 | 0.08 | 0.00 | 89 | 1017.8 |
| 20260903094204 | 56 | 174 | 0.0 | 0.0 | 0.00 | 0.08 | 0.00 | 89 | 1017.7 |
| 20260903093705 | 56 | 174 | 0.0 | 0.0 | 0.00 | 0.08 | 0.00 | 89 | 1017.7 |
| 20260903093204 | 56 | 174 | 0.0 | 1.7 | 0.00 | 0.08 | 0.00 | 89 | 1017.7 |
| 20260903092704 | 56 | 174 | 0.0 | 1.7 | 0.00 | 0.08 | 0.00 | 89 | 1017.7 |
| 20260903092204 | 57 | 174 | 0.0 | 0.9 | 0.00 | 0.08 | 0.00 | 89 | 1017.7 |
| 20260903091704 | 57 | 174 | 0.0 | 0.0 | 0.00 | 0.08 | 0.00 | 89 | 1017.7 |
| 20260903091204 | 57 | 174 | 0.0 | 0.0 | 0.00 | 0.08 | 0.00 | 89 | 1017.8 |
| 20260903090704 | 57 | 174 | 0.0 | 0.0 | 0.00 | 0.08 | 0.00 | 89 | 1017.8 |
| 20260903090204 | 57 | 174 | 0.0 | 0.9 | 0.00 | 0.08 | 0.00 | 89 | 1017.8 |
| 20260903085704 | 57 | 174 | 0.0 | 1.7 | 0.00 | 0.08 | 0.00 | 89 | 1017.8 |
| 20260903085205 | 57 | 174 | 0.0 | 0.0 | 0.00 | 0.08 | 0.00 | 89 | 1017.9 |
| 20260903084705 | 57 | 174 | 0.0 | 0.0 | 0.00 | 0.08 | 0.00 | 89 | 1017.9 |
| 20260903084204 | 57 | 174 | 0.0 | 0.0 | 0.00 | 0.08 | 0.00 | 89 | 1017.8 |
| 20260903083704 | 58 | 174 | 0.0 | 0.0 | 0.00 | 0.08 | 0.00 | 89 | 1017.8 |
| 20260903083204 | 58 | 174 | 0.0 | 0.9 | 0.00 | 0.08 | 0.00 | 89 | 1017.8 |
| 20260903082704 | 58 | 174 | 0.0 | 0.9 | 0.00 | 0.08 | 0.00 | 90 | 1017.7 |
| 20260903082205 | 58 | 174 | 0.0 | 0.9 | 0.00 | 0.08 | 0.00 | 90 | 1017.8 |
| 20260903081704 | 58 | 174 | 0.0 | 0.9 | 0.00 | 0.08 | 0.00 | 90 | 1017.8 |
| 20260903081204 | 58 | 174 | 0.0 | 0.9 | 0.00 | 0.08 | 0.00 | 90 | 1017.7 |
| 20260903080204 | 58 | 174 | 0.0 | 1.7 | 0.00 | 0.08 | 0.00 | 90 | 1017.7 |
| 20260903075704 | 59 | 247 | 0.9 | 1.7 | 0.00 | 0.08 | 0.00 | 90 | 1017.7 |
| 20260903074704 | 59 | 247 | 0.0 | 0.0 | 0.00 | 0.08 | 0.00 | 90 | 1017.8 |
| 20260903074204 | 59 | 247 | 0.0 | 0.0 | 0.00 | 0.08 | 0.00 | 90 | 1017.9 |
| 20260903073704 | 59 | 247 | 0.0 | 0.0 | 0.00 | 0.08 | 0.00 | 90 | 1017.9 |
| 20260903073204 | 59 | 247 | 0.0 | 0.0 | 0.00 | 0.08 | 0.00 | 90 | 1017.9 |
| 20260903072704 | 59 | 247 | 0.0 | 0.0 | 0.00 | 0.08 | 0.00 | 90 | 1018.0 |
| 20260903072205 | 60 | 247 | 0.0 | 0.0 | 0.00 | 0.08 | 0.00 | 90 | 1018.0 |
| 20260903071704 | 60 | 247 | 0.0 | 0.0 | 0.00 | 0.08 | 0.00 | 90 | 1018.0 |
| 20260903071204 | 60 | 247 | 0.0 | 0.0 | 0.00 | 0.08 | 0.00 | 90 | 1018.0 |
| 20260903070704 | 60 | 247 | 0.0 | 0.9 | 0.00 | 0.08 | 0.00 | 90 | 1018.1 |
| 20260903065704 | 60 | 247 | 0.0 | 0.9 | 0.00 | 0.08 | 0.00 | 90 | 1018.2 |
| 20260903065205 | 60 | 247 | 0.0 | 0.9 | 0.00 | 0.08 | 0.00 | 90 | 1018.3 |
| 20260903064704 | 61 | 247 | 0.0 | 0.0 | 0.00 | 0.08 | 0.00 | 90 | 1018.3 |
| 20260903064204 | 61 | 247 | 0.0 | 0.0 | 0.00 | 0.08 | 0.00 | 91 | 1018.3 |
| 20260903063704 | 61 | 247 | 0.0 | 0.0 | 0.00 | 0.08 | 0.00 | 91 | 1018.3 |
| 20260903063204 | 61 | 247 | 0.0 | 0.0 | 0.00 | 0.08 | 0.00 | 91 | 1018.3 |
| 20260903062704 | 61 | 247 | 0.0 | 0.9 | 0.00 | 0.08 | 0.00 | 91 | 1018.2 |
| 20260903062204 | 61 | 247 | 0.0 | 0.0 | 0.00 | 0.08 | 0.00 | 90 | 1018.0 |
| 20260903061704 | 61 | 247 | 0.0 | 0.0 | 0.00 | 0.08 | 0.00 | 90 | 1018.1 |
| 20260903061204 | 61 | 247 | 0.0 | 0.0 | 0.00 | 0.08 | 0.00 | 90 | 1018.1 |
| 20260903060705 | 61 | 247 | 0.0 | 0.0 | 0.00 | 0.08 | 0.00 | 90 | 1018.1 |
| 20260903060204 | 61 | 247 | 0.0 | 0.0 | 0.00 | 0.08 | 0.00 | 90 | 1018.1 |
| 20260903055703 | 61 | 247 | 0.0 | 0.0 | 0.00 | 0.08 | 0.08 | 90 | 1018.2 |
| 20260903055203 | 61 | 247 | 0.0 | 0.0 | 0.00 | 0.08 | 0.08 | 90 | 1018.3 |
| 20260903054704 | 61 | 247 | 0.0 | 0.0 | 0.00 | 0.08 | 0.08 | 90 | 1018.3 |
| 20260903053704 | 62 | 247 | 0.0 | 0.9 | 0.00 | 0.08 | 0.08 | 90 | 1018.2 |
| 20260903053204 | 62 | 247 | 0.0 | 0.0 | 0.00 | 0.08 | 0.08 | 90 | 1018.1 |
| 20260903052704 | 62 | 247 | 0.0 | 0.0 | 0.00 | 0.08 | 0.08 | 90 | 1018.2 |
| 20260903052204 | 62 | 247 | 0.0 | 0.9 | 0.00 | 0.08 | 0.08 | 90 | 1018.1 |
| 20260903051204 | 62 | 247 | 0.0 | 0.0 | 0.00 | 0.08 | 0.08 | 89 | 1018.2 |
| 20260903050703 | 62 | 247 | 0.0 | 0.9 | 0.00 | 0.08 | 0.08 | 89 | 1018.2 |
| 20260903050204 | 62 | 247 | 0.0 | 1.7 | 0.00 | 0.08 | 0.08 | 88 | 1018.0 |
| 20260903045704 | 62 | 247 | 0.0 | 0.0 | 0.00 | 0.08 | 0.08 | 88 | 1017.9 |
| 20260903045204 | 62 | 247 | 0.0 | 0.0 | 0.00 | 0.08 | 0.08 | 88 | 1018.1 |
| 20260903044704 | 62 | 247 | 0.0 | 0.0 | 0.00 | 0.08 | 0.08 | 88 | 1018.4 |
| 20260903044204 | 62 | 247 | 0.0 | 0.0 | 0.00 | 0.08 | 0.08 | 87 | 1018.5 |
| 20260903043704 | 62 | 247 | 0.0 | 0.0 | 0.00 | 0.08 | 0.08 | 87 | 1018.6 |
| 20260903043204 | 63 | 247 | 0.0 | 0.0 | 0.00 | 0.08 | 0.08 | 86 | 1018.7 |
| 20260903042704 | 63 | 247 | 0.0 | 0.0 | 0.00 | 0.08 | 0.08 | 86 | 1018.8 |
| 20260903042204 | 63 | 247 | 0.0 | 0.0 | 0.00 | 0.08 | 0.08 | 85 | 1018.7 |
| 20260903041703 | 63 | 247 | 0.0 | 0.9 | 0.00 | 0.08 | 0.08 | 84 | 1018.5 |
| 20260903041204 | 63 | 247 | 0.0 | 0.0 | 0.00 | 0.08 | 0.08 | 83 | 1018.6 |
| 20260903040703 | 63 | 247 | 0.0 | 0.0 | 0.00 | 0.08 | 0.08 | 83 | 1018.6 |
| 20260903040204 | 64 | 247 | 0.0 | 0.0 | 0.00 | 0.08 | 0.08 | 82 | 1018.5 |
| 20260903035704 | 64 | 247 | 0.0 | 0.0 | 0.00 | 0.08 | 0.08 | 82 | 1018.5 |
| 20260903035203 | 64 | 247 | 0.0 | 0.0 | 0.00 | 0.08 | 0.08 | 81 | 1018.5 |
| 20260903034704 | 64 | 247 | 0.0 | 0.9 | 0.00 | 0.08 | 0.08 | 80 | 1018.5 |
| 20260903034204 | 65 | 247 | 0.0 | 0.0 | 0.00 | 0.08 | 0.08 | 79 | 1018.6 |
| 20260903033704 | 65 | 247 | 0.0 | 1.7 | 0.05 | 0.08 | 0.08 | 78 | 1018.5 |
| 20260903033204 | 66 | 247 | 0.9 | 2.6 | 0.08 | 0.08 | 0.08 | 76 | 1018.5 |
| 20260903032203 | 67 | 47 | 0.0 | 0.0 | 0.08 | 0.08 | 0.08 | 73 | 1018.3 |
| 20260903031704 | 68 | 47 | 0.0 | 0.0 | 0.08 | 0.08 | 0.08 | 73 | 1018.1 |
| 20260903031204 | 68 | 47 | 0.0 | 1.7 | 0.08 | 0.08 | 0.08 | 72 | 1018.0 |
| 20260903030204 | 70 | 243 | 0.0 | 0.0 | 0.08 | 0.08 | 0.08 | 69 | 1018.3 |
| 20260903025703 | 71 | 243 | 0.0 | 0.9 | 0.08 | 0.08 | 0.08 | 68 | 1018.4 |
| 20260903025203 | 72 | 242 | 0.0 | 0.0 | 0.08 | 0.08 | 0.08 | 64 | 1018.4 |
| 20260903024703 | 74 | 242 | 0.0 | 0.0 | 0.08 | 0.08 | 0.08 | 63 | 1018.5 |
| 20260903024203 | 75 | 242 | 0.0 | 0.9 | 0.08 | 0.08 | 0.08 | 60 | 1018.7 |
| 20260903023703 | 76 | 242 | 0.0 | 2.6 | 0.03 | 0.03 | 0.03 | 52 | 1018.7 |
| 20260903023203 | 77 | 240 | 0.9 | 4.3 | 0.00 | 0.00 | 0.00 | 41 | 1018.5 |
| 20260903022705 | 77 | 207 | 0.9 | 2.6 | 0.00 | 0.00 | 0.00 | 40 | 1018.1 |
| 20260903022204 | 77 | 90 | 0.0 | 1.7 | 0.00 | 0.00 | 0.00 | 39 | 1017.6 |
| 20260903021706 | 77 | 90 | 0.0 | 2.6 | 0.00 | 0.00 | 0.00 | 38 | 1017.3 |
| 20260903021205 | 77 | 90 | 0.9 | 2.6 | 0.00 | 0.00 | 0.00 | 37 | 1017.3 |
| 20260903020706 | 78 | 56 | 1.7 | 4.3 | 0.00 | 0.00 | 0.00 | 37 | 1017.3 |
| 20260903015706 | 78 | 60 | 0.0 | 4.3 | 0.00 | 0.00 | 0.00 | 36 | 1016.9 |
| 20260903015205 | 78 | 17 | 0.9 | 2.6 | 0.00 | 0.00 | 0.00 | 35 | 1016.9 |
| 20260903014705 | 78 | 7 | 1.7 | 6.1 | 0.00 | 0.00 | 0.00 | 35 | 1017.0 |
| 20260903014205 | 78 | 358 | 1.7 | 6.1 | 0.00 | 0.00 | 0.00 | 34 | 1016.9 |
| 20260903013706 | 78 | 10 | 2.6 | 7.8 | 0.00 | 0.00 | 0.00 | 34 | 1016.8 |
| 20260903013205 | 78 | 73 | 1.7 | 2.6 | 0.00 | 0.00 | 0.00 | 34 | 1016.8 |
| 20260903012205 | 79 | 10 | 0.9 | 4.3 | 0.00 | 0.00 | 0.00 | 34 | 1016.8 |
| 20260903011705 | 79 | 9 | 2.6 | 6.1 | 0.00 | 0.00 | 0.00 | 33 | 1016.8 |
| 20260903011206 | 79 | 19 | 2.6 | 5.2 | 0.00 | 0.00 | 0.00 | 33 | 1016.7 |
| 20260903010705 | 79 | 355 | 1.7 | 7.0 | 0.00 | 0.00 | 0.00 | 33 | 1016.8 |
| 20260903010206 | 80 | 18 | 2.6 | 7.8 | 0.00 | 0.00 | 0.00 | 32 | 1016.7 |
| 20260903005705 | 80 | 23 | 0.9 | 5.2 | 0.00 | 0.00 | 0.00 | 32 | 1016.7 |
| 20260903005206 | 80 | 3 | 1.7 | 2.6 | 0.00 | 0.00 | 0.00 | 32 | 1016.6 |
| 20260903004205 | 81 | 5 | 0.0 | 0.9 | 0.00 | 0.00 | 0.00 | 32 | 1016.6 |
| 20260903003706 | 81 | 5 | 0.9 | 2.6 | 0.00 | 0.00 | 0.00 | 31 | 1016.5 |
| 20260903003206 | 82 | 0 | 0.9 | 2.6 | 0.00 | 0.00 | 0.00 | 31 | 1016.5 |
| 20260903002705 | 82 | 9 | 0.0 | 2.6 | 0.00 | 0.00 | 0.00 | 31 | 1016.4 |
| 20260903001705 | 83 | 344 | 0.0 | 0.9 | 0.00 | 0.00 | 0.00 | 31 | 1016.5 |
| 20260903001206 | 83 | 344 | 0.9 | 2.6 | 0.00 | 0.00 | 0.00 | 28 | 1016.5 |
| 20260903000706 | 83 | 43 | 0.0 | 2.6 | 0.00 | 0.00 | 0.00 | 30 | 1016.5 |
| 20260903000205 | 84 | 18 | 0.0 | 0.0 | 0.00 | 0.00 | 0.00 | 29 | 1016.5 |
| 20260902235706 | 84 | 18 | 0.0 | 5.2 | 0.00 | 0.00 | 0.00 | 28 | 1016.5 |
| 20260902235206 | 85 | 280 | 0.9 | 4.3 | 0.00 | 0.00 | 0.00 | 28 | 1016.4 |
| 20260902234706 | 85 | 32 | 0.9 | 2.6 | 0.00 | 0.00 | 0.00 | 28 | 1016.4 |
| 20260902234206 | 85 | 355 | 0.0 | 4.3 | 0.00 | 0.00 | 0.00 | 29 | 1016.5 |
| 20260902233205 | 85 | 354 | 1.7 | 4.3 | 0.00 | 0.00 | 0.00 | 29 | 1016.6 |
| 20260902232705 | 85 | 293 | 0.9 | 7.0 | 0.00 | 0.00 | 0.00 | 28 | 1016.6 |
| 20260902232205 | 85 | 262 | 1.7 | 7.0 | 0.00 | 0.00 | 0.00 | 28 | 1016.6 |
| 20260902231706 | 86 | 337 | 0.9 | 7.8 | 0.00 | 0.00 | 0.00 | 27 | 1016.6 |
| 20260902231206 | 86 | 347 | 5.2 | 10.4 | 0.00 | 0.00 | 0.00 | 25 | 1016.6 |
| 20260902230706 | 87 | 5 | 0.0 | 1.7 | 0.00 | 0.00 | 0.00 | 27 | 1016.5 |
| 20260902230205 | 87 | 5 | 0.0 | 0.9 | 0.00 | 0.00 | 0.00 | 26 | 1016.4 |
| 20260902225705 | 87 | 5 | 0.0 | 0.0 | 0.00 | 0.00 | 0.00 | 27 | 1016.4 |
| 20260902225206 | 87 | 5 | 0.0 | 0.9 | 0.00 | 0.00 | 0.00 | 25 | 1016.4 |
| 20260902224205 | 87 | 5 | 0.0 | 0.0 | 0.00 | 0.00 | 0.00 | 27 | 1016.3 |
| 20260902223705 | 88 | 5 | 0.0 | 1.7 | 0.00 | 0.00 | 0.00 | 25 | 1016.4 |
| 20260902223205 | 88 | 4 | 0.9 | 2.6 | 0.00 | 0.00 | 0.00 | 26 | 1016.4 |
| 20260902222705 | 88 | 120 | 0.0 | 0.9 | 0.00 | 0.00 | 0.00 | 25 | 1016.3 |
| 20260902222205 | 89 | 32 | 0.9 | 7.0 | 0.00 | 0.00 | 0.00 | 23 | 1016.2 |
| 20260902221705 | 90 | 139 | 0.9 | 4.3 | 0.00 | 0.00 | 0.00 | 23 | 1016.2 |
| 20260902221205 | 90 | 78 | 0.0 | 2.6 | 0.00 | 0.00 | 0.00 | 22 | 1016.2 |
| 20260902220705 | 90 | 91 | 0.9 | 4.3 | 0.00 | 0.00 | 0.00 | 23 | 1016.2 |
| 20260902220205 | 90 | 151 | 0.9 | 1.7 | 0.00 | 0.00 | 0.00 | 22 | 1016.4 |
| 20260902215206 | 89 | 146 | 0.9 | 2.6 | 0.00 | 0.00 | 0.00 | 21 | 1016.5 |
| 20260902214706 | 89 | 131 | 0.9 | 1.7 | 0.00 | 0.00 | 0.00 | 24 | 1016.6 |
| 20260902214205 | 89 | 84 | 1.7 | 2.6 | 0.00 | 0.00 | 0.00 | 22 | 1016.6 |
| 20260902213705 | 90 | 119 | 0.9 | 2.6 | 0.00 | 0.00 | 0.00 | 22 | 1016.7 |
| 20260902213205 | 90 | 12 | 0.0 | 1.7 | 0.00 | 0.00 | 0.00 | 24 | 1016.7 |
| 20260902212705 | 90 | 12 | 0.9 | 5.2 | 0.00 | 0.00 | 0.00 | 21 | 1016.7 |
| 20260902212205 | 90 | 165 | 0.0 | 5.2 | 0.00 | 0.00 | 0.00 | 22 | 1016.8 |
| 20260902211705 | 90 | 169 | 1.7 | 4.3 | 0.00 | 0.00 | 0.00 | 22 | 1016.9 |
| 20260902211205 | 90 | 121 | 1.7 | 2.6 | 0.00 | 0.00 | 0.00 | 23 | 1016.9 |
| 20260902210705 | 90 | 224 | 1.7 | 2.6 | 0.00 | 0.00 | 0.00 | 21 | 1017.0 |
| 20260902210205 | 90 | 132 | 0.9 | 2.6 | 0.00 | 0.00 | 0.00 | 22 | 1017.1 |
| 20260902205706 | 90 | 130 | 0.9 | 2.6 | 0.00 | 0.00 | 0.00 | 25 | 1017.1 |
| 20260902205205 | 90 | 40 | 0.9 | 2.6 | 0.00 | 0.00 | 0.00 | 21 | 1017.2 |
| 20260902204205 | 90 | 185 | 0.9 | 6.1 | 0.00 | 0.00 | 0.00 | 22 | 1017.4 |
| 20260902203705 | 90 | 100 | 0.9 | 4.3 | 0.00 | 0.00 | 0.00 | 23 | 1017.5 |
| 20260902203205 | 89 | 123 | 1.7 | 2.6 | 0.00 | 0.00 | 0.00 | 22 | 1017.6 |
| 20260902202705 | 89 | 142 | 1.7 | 4.3 | 0.00 | 0.00 | 0.00 | 24 | 1017.6 |
| 20260902202205 | 89 | 51 | 0.0 | 4.3 | 0.00 | 0.00 | 0.00 | 21 | 1017.6 |
| 20260902201705 | 89 | 81 | 0.9 | 2.6 | 0.00 | 0.00 | 0.00 | 24 | 1017.7 |
| 20260902201205 | 89 | 175 | 0.9 | 1.7 | 0.00 | 0.00 | 0.00 | 22 | 1017.8 |
| 20260902200704 | 89 | 126 | 0.9 | 4.3 | 0.00 | 0.00 | 0.00 | 23 | 1017.9 |
| 20260902200205 | 88 | 92 | 1.7 | 2.6 | 0.00 | 0.00 | 0.00 | 23 | 1018.0 |
| 20260902195205 | 88 | 136 | 0.9 | 2.6 | 0.00 | 0.00 | 0.00 | 24 | 1018.1 |
| 20260902194705 | 88 | 101 | 2.6 | 2.6 | 0.00 | 0.00 | 0.00 | 22 | 1018.1 |
| 20260902194205 | 87 | 147 | 0.0 | 4.3 | 0.00 | 0.00 | 0.00 | 24 | 1018.1 |
| 20260902193705 | 87 | 76 | 1.7 | 6.1 | 0.00 | 0.00 | 0.00 | 24 | 1018.2 |
| 20260902193205 | 87 | 116 | 0.9 | 2.6 | 0.00 | 0.00 | 0.00 | 26 | 1018.3 |
| 20260902192705 | 87 | 85 | 2.6 | 6.1 | 0.00 | 0.00 | 0.00 | 24 | 1018.4 |
| 20260902192205 | 87 | 129 | 0.9 | 6.1 | 0.00 | 0.00 | 0.00 | 25 | 1018.5 |
| 20260902191705 | 87 | 111 | 1.7 | 5.2 | 0.00 | 0.00 | 0.00 | 25 | 1018.5 |
| 20260902191205 | 86 | 99 | 1.7 | 4.3 | 0.00 | 0.00 | 0.00 | 24 | 1018.5 |
| 20260902190205 | 86 | 92 | 0.9 | 2.6 | 0.00 | 0.00 | 0.00 | 24 | 1018.7 |
| 20260902185705 | 86 | 95 | 0.9 | 6.1 | 0.00 | 0.00 | 0.00 | 27 | 1018.8 |
| 20260902185205 | 86 | 167 | 2.6 | 5.2 | 0.00 | 0.00 | 0.00 | 26 | 1018.8 |
| 20260902184705 | 85 | 197 | 0.9 | 2.6 | 0.00 | 0.00 | 0.00 | 28 | 1018.9 |
| 20260902184205 | 85 | 63 | 1.7 | 2.6 | 0.00 | 0.00 | 0.00 | 27 | 1018.9 |
| 20260902183705 | 84 | 120 | 1.7 | 4.3 | 0.00 | 0.00 | 0.00 | 28 | 1019.0 |
| 20260902183206 | 85 | 71 | 3.5 | 7.0 | 0.00 | 0.00 | 0.00 | 26 | 1019.1 |
| 20260902182706 | 85 | 53 | 1.7 | 2.6 | 0.00 | 0.00 | 0.00 | 27 | 1019.2 |
| 20260902181705 | 84 | 128 | 0.0 | 2.6 | 0.00 | 0.00 | 0.00 | 27 | 1019.3 |
| 20260902181204 | 84 | 114 | 0.9 | 4.3 | 0.00 | 0.00 | 0.00 | 26 | 1019.5 |
| 20260902180705 | 83 | 72 | 0.9 | 2.6 | 0.00 | 0.00 | 0.00 | 27 | 1019.5 |
| 20260902175205 | 83 | 79 | 0.9 | 4.3 | 0.00 | 0.00 | 0.00 | 26 | 1019.8 |
| 20260902174705 | 83 | 61 | 2.6 | 6.1 | 0.00 | 0.00 | 0.00 | 27 | 1019.8 |
| 20260902174205 | 83 | 93 | 2.6 | 4.3 | 0.00 | 0.00 | 0.00 | 28 | 1019.8 |
| 20260902173205 | 83 | 141 | 1.7 | 2.6 | 0.00 | 0.00 | 0.00 | 28 | 1019.9 |
| 20260902172705 | 83 | 119 | 1.7 | 5.2 | 0.00 | 0.00 | 0.00 | 28 | 1019.9 |
| 20260902172204 | 82 | 142 | 0.9 | 2.6 | 0.00 | 0.00 | 0.00 | 31 | 1019.9 |
| 20260902171705 | 82 | 142 | 0.9 | 2.6 | 0.00 | 0.00 | 0.00 | 30 | 1020.0 |
| 20260902170705 | 81 | 152 | 1.7 | 5.2 | 0.00 | 0.00 | 0.00 | 31 | 1020.1 |
| 20260902170205 | 81 | 154 | 0.9 | 4.3 | 0.00 | 0.00 | 0.00 | 31 | 1020.1 |
| 20260902165705 | 81 | 185 | 0.9 | 2.6 | 0.00 | 0.00 | 0.00 | 32 | 1020.2 |
| 20260902165205 | 80 | 170 | 1.7 | 4.3 | 0.00 | 0.00 | 0.00 | 33 | 1020.3 |
| 20260902164705 | 80 | 111 | 0.9 | 2.6 | 0.00 | 0.00 | 0.00 | 33 | 1020.3 |
| 20260902164204 | 79 | 200 | 0.9 | 1.7 | 0.00 | 0.00 | 0.00 | 35 | 1020.3 |
| 20260902163705 | 79 | 126 | 0.9 | 2.6 | 0.00 | 0.00 | 0.00 | 36 | 1020.3 |
| 20260902163205 | 78 | 125 | 0.9 | 4.3 | 0.00 | 0.00 | 0.00 | 36 | 1020.3 |
| 20260902162705 | 78 | 170 | 0.0 | 1.7 | 0.00 | 0.00 | 0.00 | 37 | 1020.3 |
| 20260902162205 | 77 | 163 | 0.9 | 2.6 | 0.00 | 0.00 | 0.00 | 38 | 1020.3 |
| 20260902161704 | 77 | 122 | 0.9 | 2.6 | 0.00 | 0.00 | 0.00 | 40 | 1020.3 |
| 20260902160705 | 76 | 195 | 0.0 | 2.6 | 0.00 | 0.00 | 0.00 | 42 | 1020.4 |
| 20260902160205 | 75 | 195 | 0.9 | 2.6 | 0.00 | 0.00 | 0.00 | 42 | 1020.4 |
| 20260902155705 | 74 | 121 | 0.9 | 1.7 | 0.00 | 0.00 | 0.00 | 46 | 1020.4 |
| 20260902155205 | 73 | 163 | 0.0 | 1.7 | 0.00 | 0.00 | 0.00 | 45 | 1020.4 |
| 20260902154704 | 72 | 163 | 1.7 | 4.3 | 0.00 | 0.00 | 0.00 | 45 | 1020.4 |
| 20260902153705 | 71 | 207 | 0.9 | 4.3 | 0.00 | 0.00 | 0.00 | 49 | 1020.4 |
| 20260902153205 | 70 | 155 | 0.9 | 1.7 | 0.00 | 0.00 | 0.00 | 49 | 1020.4 |
| 20260902152204 | 69 | 170 | 1.7 | 2.6 | 0.00 | 0.00 | 0.00 | 51 | 1020.4 |
| 20260902151705 | 68 | 191 | 0.9 | 2.6 | 0.00 | 0.00 | 0.00 | 53 | 1020.3 |
| 20260902151204 | 68 | 191 | 0.0 | 0.9 | 0.00 | 0.00 | 0.00 | 54 | 1020.3 |
| 20260902150704 | 67 | 191 | 0.9 | 2.6 | 0.00 | 0.00 | 0.00 | 55 | 1020.3 |
| 20260902150204 | 66 | 191 | 0.9 | 1.7 | 0.00 | 0.00 | 0.00 | 60 | 1020.4 |
| 20260902145705 | 65 | 191 | 0.0 | 0.0 | 0.00 | 0.00 | 0.00 | 62 | 1020.4 |
| 20260902145204 | 64 | 191 | 0.0 | 0.0 | 0.00 | 0.00 | 0.00 | 62 | 1020.4 |
| 20260902144705 | 63 | 191 | 0.0 | 0.0 | 0.00 | 0.00 | 0.00 | 66 | 1020.4 |
| 20260902144204 | 63 | 191 | 0.0 | 0.0 | 0.00 | 0.00 | 0.00 | 69 | 1020.3 |
| 20260902143705 | 62 | 191 | 0.0 | 0.0 | 0.00 | 0.00 | 0.00 | 75 | 1020.3 |
| 20260902143204 | 61 | 191 | 0.0 | 0.0 | 0.00 | 0.00 | 0.00 | 76 | 1020.2 |
| 20260902142705 | 60 | 191 | 0.0 | 0.0 | 0.00 | 0.00 | 0.00 | 78 | 1020.3 |
| 20260902142204 | 59 | 191 | 0.0 | 0.0 | 0.00 | 0.00 | 0.00 | 79 | 1020.3 |
| 20260902141705 | 59 | 191 | 0.0 | 0.0 | 0.00 | 0.00 | 0.00 | 81 | 1020.4 |
| 20260902141205 | 58 | 191 | 0.0 | 0.0 | 0.00 | 0.00 | 0.00 | 82 | 1020.3 |
| 20260902140204 | 57 | 191 | 0.0 | 0.0 | 0.00 | 0.00 | 0.00 | 84 | 1020.3 |
| 20260902135704 | 56 | 191 | 0.0 | 0.0 | 0.00 | 0.00 | 0.00 | 84 | 1020.3 |
| 20260902135204 | 56 | 191 | 0.0 | 0.0 | 0.00 | 0.00 | 0.00 | 84 | 1020.3 |
| 20260902134705 | 55 | 191 | 0.0 | 0.0 | 0.00 | 0.00 | 0.00 | 84 | 1020.3 |
| 20260902134204 | 55 | 191 | 0.0 | 0.0 | 0.00 | 0.00 | 0.00 | 84 | 1020.3 |